EN

Hourly Weather Altos del Rosario

Today, 17 January, Sunday

Time Temperature Precipitation Wind Pressure Humidity
00:00 +26°C° 0.2 mm 1 mps 756 mmHg 92%
01:00 +25°C° 0 mm 1 mps 756 mmHg 94%
02:00 +25°C° 0.1 mm 1 mps 755 mmHg 95%
03:00 +25°C° 0.1 mm 1 mps 755 mmHg 96%
04:00 +22°C° 0.1 mm 0 mps 755 mmHg 96%
05:00 +23°C° 0 mm 0 mps 755 mmHg 96%
06:00 +23°C° 0 mm 0 mps 755 mmHg 95%
07:00 +23°C° 0 mm 0 mps 756 mmHg 94%
08:00 +26°C° 0 mm 0 mps 756 mmHg 82%
09:00 +28°C° 0 mm 0 mps 756 mmHg 70%
10:00 +31°C° 0 mm 0 mps 756 mmHg 57%
11:00 +32°C° 0 mm 0 mps 755 mmHg 51%
12:00 +36°C° 0 mm 1 mps 755 mmHg 45%
13:00 +37°C° 0 mm 1 mps 754 mmHg 39%
14:00 +37°C° 0 mm 1 mps 753 mmHg 40%
15:00 +36°C° 0 mm 1 mps 752 mmHg 41%
16:00 +36°C° 0 mm 1 mps 751 mmHg 43%
17:00 +33°C° 0 mm 1 mps 752 mmHg 52%
18:00 +31°C° 0 mm 1 mps 752 mmHg 62%
19:00 +29°C° 0 mm 1 mps 753 mmHg 71%
20:00 +28°C° 0 mm 1 mps 753 mmHg 74%
21:00 +25°C° 0 mm 0 mps 754 mmHg 77%
22:00 +25°C° 0 mm 0 mps 755 mmHg 81%
23:00 +26°C° 0 mm 1 mps 755 mmHg 84%

Tomorrow, 18 January, Monday

Time Temperature Precipitation Wind Pressure Humidity
00:00 +26°C° 0 mm 1 mps 755 mmHg 87%
01:00 +26°C° 0 mm 1 mps 755 mmHg 91%
02:00 +25°C° 0.1 mm 1 mps 755 mmHg 92%
03:00 +23°C° 0.1 mm 0 mps 754 mmHg 93%
04:00 +23°C° 0.1 mm 0 mps 754 mmHg 94%
05:00 +23°C° 0.1 mm 0 mps 755 mmHg 93%
06:00 +23°C° 0.1 mm 0 mps 756 mmHg 93%
07:00 +24°C° 0.1 mm 0 mps 756 mmHg 92%
08:00 +26°C° 0.1 mm 0 mps 756 mmHg 81%
09:00 +28°C° 0.1 mm 0 mps 757 mmHg 70%
10:00 +31°C° 0.1 mm 0 mps 757 mmHg 60%
11:00 +34°C° 0 mm 1 mps 756 mmHg 53%
12:00 +36°C° 0 mm 1 mps 755 mmHg 46%
13:00 +37°C° 0 mm 1 mps 754 mmHg 39%
14:00 +36°C° 0 mm 1 mps 754 mmHg 40%
15:00 +36°C° 0 mm 1 mps 753 mmHg 40%
16:00 +35°C° 0 mm 1 mps 752 mmHg 40%
17:00 +33°C° 0 mm 1 mps 753 mmHg 48%
18:00 +31°C° 0 mm 1 mps 753 mmHg 55%
19:00 +26°C° 0 mm 0 mps 753 mmHg 62%
20:00 +26°C° 0 mm 0 mps 754 mmHg 66%
21:00 +25°C° 0 mm 0 mps 754 mmHg 69%
22:00 +25°C° 0 mm 0 mps 755 mmHg 72%
23:00 +24°C° 0 mm 0 mps 755 mmHg 75%

Day after tomorrow, 19 January, Tuesday

Time Temperature Precipitation Wind Pressure Humidity
00:00 +24°C° 0 mm 0 mps 755 mmHg 77%
01:00 +24°C° 0 mm 0 mps 755 mmHg 80%
02:00 +23°C° 0 mm 0 mps 755 mmHg 81%
03:00 +23°C° 0 mm 0 mps 754 mmHg 83%
04:00 +23°C° 0 mm 0 mps 754 mmHg 84%
05:00 +23°C° 0 mm 0 mps 755 mmHg 83%
06:00 +23°C° 0 mm 0 mps 755 mmHg 82%
07:00 +23°C° 0 mm 0 mps 756 mmHg 82%
08:00 +26°C° 0 mm 0 mps 756 mmHg 71%
09:00 +30°C° 0 mm 1 mps 756 mmHg 60%
10:00 +33°C° 0 mm 1 mps 756 mmHg 50%
11:00 +34°C° 0 mm 1 mps 755 mmHg 45%
12:00 +36°C° 0 mm 1 mps 755 mmHg 41%
13:00 +37°C° 0 mm 1 mps 754 mmHg 37%
14:00 +37°C° 0 mm 1 mps 753 mmHg 37%
15:00 +37°C° 0 mm 1 mps 752 mmHg 37%
16:00 +37°C° 0 mm 1 mps 752 mmHg 37%
17:00 +34°C° 0 mm 1 mps 752 mmHg 45%
18:00 +32°C° 0 mm 1 mps 753 mmHg 53%
19:00 +27°C° 0 mm 0 mps 753 mmHg 62%
20:00 +26°C° 0 mm 0 mps 753 mmHg 65%
21:00 +25°C° 0 mm 0 mps 754 mmHg 68%
22:00 +25°C° 0 mm 0 mps 754 mmHg 71%
23:00 +24°C° 0 mm 0 mps 754 mmHg 73%

20 January, Wednesday

Time Temperature Precipitation Wind Pressure Humidity
00:00 +24°C° 0 mm 0 mps 754 mmHg 75%
01:00 +23°C° 0 mm 0 mps 754 mmHg 77%
02:00 +23°C° 0 mm 0 mps 754 mmHg 79%
03:00 +23°C° 0 mm 0 mps 754 mmHg 81%
04:00 +22°C° 0 mm 0 mps 754 mmHg 83%
05:00 +23°C° 0 mm 0 mps 754 mmHg 83%
06:00 +23°C° 0 mm 0 mps 754 mmHg 83%
07:00 +23°C° 0 mm 0 mps 755 mmHg 83%
08:00 +26°C° 0 mm 0 mps 755 mmHg 72%
09:00 +29°C° 0 mm 0 mps 755 mmHg 61%
10:00 +34°C° 0 mm 1 mps 755 mmHg 50%
11:00 +35°C° 0 mm 1 mps 755 mmHg 45%
12:00 +36°C° 0 mm 1 mps 754 mmHg 41%
13:00 +39°C° 0 mm 1 mps 753 mmHg 36%
14:00 +39°C° 0 mm 1 mps 752 mmHg 36%
15:00 +37°C° 0 mm 1 mps 752 mmHg 36%
16:00 +37°C° 0 mm 1 mps 751 mmHg 36%
17:00 +35°C° 0 mm 1 mps 752 mmHg 45%
18:00 +30°C° 0 mm 0 mps 752 mmHg 53%
19:00 +27°C° 0 mm 0 mps 753 mmHg 62%
20:00 +27°C° 0 mm 0 mps 753 mmHg 65%
21:00 +26°C° 0 mm 0 mps 754 mmHg 68%
22:00 +25°C° 0 mm 0 mps 755 mmHg 72%
23:00 +25°C° 0 mm 0 mps 754 mmHg 75%

21 January, Thursday

Time Temperature Precipitation Wind Pressure Humidity
00:00 +24°C° 0 mm 0 mps 754 mmHg 78%
01:00 +24°C° 0 mm 0 mps 754 mmHg 82%
02:00 +23°C° 0 mm 0 mps 754 mmHg 84%
03:00 +23°C° 0 mm 0 mps 754 mmHg 87%
04:00 +23°C° 0 mm 0 mps 754 mmHg 89%
05:00 +23°C° 0 mm 0 mps 754 mmHg 88%
06:00 +23°C° 0 mm 0 mps 755 mmHg 88%
07:00 +23°C° 0 mm 0 mps 755 mmHg 87%
08:00 +26°C° 0 mm 0 mps 756 mmHg 74%
09:00 +30°C° 0 mm 0 mps 756 mmHg 62%
10:00 +33°C° 0 mm 0 mps 756 mmHg 49%
11:00 +34°C° 0 mm 0 mps 755 mmHg 45%
12:00 +37°C° 0 mm 1 mps 754 mmHg 40%
13:00 +39°C° 0 mm 1 mps 753 mmHg 35%
14:00 +39°C° 0 mm 1 mps 753 mmHg 36%
15:00 +37°C° 0 mm 1 mps 752 mmHg 37%
16:00 +37°C° 0 mm 1 mps 751 mmHg 37%
17:00 +34°C° 0 mm 1 mps 752 mmHg 46%
18:00 +32°C° 0 mm 1 mps 752 mmHg 54%
19:00 +27°C° 0 mm 0 mps 753 mmHg 63%
20:00 +27°C° 0 mm 0 mps 753 mmHg 66%
21:00 +26°C° 0 mm 0 mps 754 mmHg 69%
22:00 +25°C° 0 mm 0 mps 755 mmHg 73%
23:00 +27°C° 0 mm 1 mps 755 mmHg 77%

22 January, Friday

Time Temperature Precipitation Wind Pressure Humidity
00:00 +26°C° 0 mm 1 mps 754 mmHg 80%
01:00 +26°C° 0 mm 1 mps 754 mmHg 84%
02:00 +23°C° 0 mm 0 mps 754 mmHg 86%
03:00 +23°C° 0 mm 0 mps 754 mmHg 88%
04:00 +23°C° 0 mm 0 mps 754 mmHg 90%
05:00 +23°C° 0 mm 0 mps 755 mmHg 89%
06:00 +23°C° 0 mm 0 mps 755 mmHg 88%
07:00 +24°C° 0 mm 0 mps 756 mmHg 87%
08:00 +26°C° 0 mm 0 mps 756 mmHg 75%
09:00 +29°C° 0 mm 0 mps 756 mmHg 62%
10:00 +32°C° 0 mm 0 mps 756 mmHg 50%
11:00 +34°C° 0 mm 0 mps 755 mmHg 45%
12:00 +35°C° 0 mm 0 mps 755 mmHg 40%
13:00 +39°C° 0 mm 1 mps 754 mmHg 35%
14:00 +39°C° 0 mm 1 mps 753 mmHg 36%
15:00 +37°C° 0 mm 1 mps 752 mmHg 37%
16:00 +37°C° 0 mm 1 mps 752 mmHg 37%
17:00 +34°C° 0 mm 1 mps 752 mmHg 47%
18:00 +32°C° 0 mm 1 mps 753 mmHg 57%
19:00 +29°C° 0 mm 1 mps 753 mmHg 67%
20:00 +29°C° 0 mm 1 mps 754 mmHg 70%
21:00 +28°C° 0 mm 1 mps 754 mmHg 73%
22:00 +27°C° 0 mm 1 mps 755 mmHg 76%
23:00 +27°C° 0 mm 1 mps 755 mmHg 79%
Show more